Time,B instrument,Bx,By,Bz,sigma B,Ion instrument,Status,Tp_par,Tp_perp,carrot,r_sun,clat,clong,earth_he_angle,n_p,vp_x,vp_y,vp_z,vth_p_par,vth_p_perp
1980-12-16 00:06:48,1,-29.0333,21.6,4.76667,1.64857,1,1,64246.1,104829.0,1703,0.38785601,6.687582,244.58514,239.46796,15.2397,297.096,50.1359,57.823,32.5673,41.6006
1980-12-16 00:09:30,1,-30.5,15.6,-11.95,2.40884,1,1,100927.0,127304.0,1703,0.38788086,6.6880283,244.56505,239.4752,20.6566,283.235,30.0545,19.1049,40.819,45.8436
1980-12-16 00:12:12,1,-32.1,16.8333,-6.73333,3.20798,1,1,198483.0,126940.0,1703,0.38790572,6.6884747,244.54884,239.48244,24.1618,279.266,40.0905,21.7774,57.2427,45.7781
1980-12-16 00:14:54,-1,nan,nan,nan,nan,1,4,nan,nan,1703,0.38792229,6.6887722,244.53024,239.48727,nan,nan,nan,nan,nan,nan
1980-12-16 00:31:06,1,-16.0667,33.9333,6.0,1.10655,1,1,207461.0,198151.0,1703,0.38806307,6.6913013,244.42282,239.52829,26.0241,351.01,75.9354,49.5519,58.5229,57.1947
1980-12-16 00:33:48,1,-18.4667,32.4667,10.4333,0.743864,1,1,199017.0,198688.0,1703,0.3880797,6.6915989,244.4003,239.53311,23.1135,343.317,81.3233,55.5659,57.3196,57.2721
1980-12-16 00:36:30,1,-16.4,34.9667,6.26667,0.539547,1,1,184801.0,202198.0,1703,0.3881045,6.6920452,244.38409,239.54034,24.6366,352.637,76.384,40.6528,55.2345,57.7758
1980-12-16 00:39:12,1,-10.75,37.575,3.275,3.93399,1,1,194041.0,162566.0,1703,0.38812935,6.6924915,244.3679,239.54759,20.3461,351.611,94.3297,16.1625,56.5984,51.8051
1980-12-16 00:49:59,1,-24.5333,23.5667,-12.5333,2.55604,1,1,147667.0,197700.0,1703,0.38820392,6.6938305,244.29196,239.56931,25.2896,358.464,84.0811,61.2567,49.3742,57.1297
1980-12-16 00:54:21,-1,nan,nan,nan,nan,1,4,nan,nan,1703,0.38825363,6.6947231,244.26347,239.58379,nan,nan,nan,nan,nan,nan
1980-12-16 02:24:21,-1,nan,nan,nan,nan,1,3,nan,nan,1703,0.38900042,6.7079487,243.65945,239.80008,nan,329.158,-14.9671,-25.6618,nan,nan
1980-12-16 02:27:57,-1,nan,nan,nan,nan,1,4,nan,nan,1703,0.38902533,6.7083855,243.63148,239.80727,nan,nan,nan,nan,nan,nan
1980-12-16 02:33:21,-1,nan,nan,nan,nan,1,3,nan,nan,1703,0.38907516,6.70926,243.59898,239.82164,nan,327.529,20.4632,19.7347,nan,nan
1980-12-16 02:44:09,-1,nan,nan,nan,nan,1,3,nan,nan,1703,0.38916653,6.7108631,243.52379,239.84801,nan,344.413,-72.4592,-17.1105,nan,nan
1980-12-16 02:49:33,-1,nan,nan,nan,nan,1,3,nan,nan,1703,0.38920808,6.7115917,243.48891,239.86,nan,315.353,-9.48179,15.303,nan,nan
1980-12-16 02:54:57,-1,nan,nan,nan,nan,1,3,nan,nan,1703,0.38924962,6.7123203,243.4501,239.87198,nan,322.423,-40.3924,23.7858,nan,nan
1980-12-16 03:00:21,-1,nan,nan,nan,nan,1,3,nan,nan,1703,0.38929951,6.7131948,243.41762,239.88637,nan,348.141,-59.5502,-17.1532,nan,nan
1980-12-16 03:05:45,-1,nan,nan,nan,nan,1,3,nan,nan,1703,0.38934112,6.7139149,243.37877,239.8983,nan,339.316,-45.4736,-11.7756,nan,nan
1980-12-16 03:11:09,-1,nan,nan,nan,nan,1,4,nan,nan,1703,0.38939101,6.7147799,243.34233,239.91264,nan,nan,nan,nan,nan,nan
1980-12-16 03:16:33,-1,nan,nan,nan,nan,1,3,nan,nan,1703,0.38943261,6.7154999,243.30739,239.92458,nan,387.17,-64.0601,-42.62,nan,nan
1980-12-16 03:21:57,-1,nan,nan,nan,nan,1,4,nan,nan,1703,0.38947421,6.7162209,243.26855,239.93652,nan,nan,nan,nan,nan,nan
1980-12-16 03:27:21,-1,nan,nan,nan,nan,1,3,nan,nan,1703,0.3895241,6.7170858,243.2321,239.95085,nan,368.848,56.1075,-5.9678,nan,nan
1980-12-16 03:32:45,-1,nan,nan,nan,nan,1,3,nan,nan,1703,0.38956571,6.7178059,243.19717,239.9628,nan,353.154,8.59493,70.87,nan,nan
1980-12-16 03:54:21,1,1.25,28.6,14.025,1.18506,1,1,122728.0,306028.0,1703,0.38974875,6.7209768,243.05051,240.01535,46.2436,414.595,51.2522,64.4479,45.0122,71.0785
1980-12-16 03:59:45,1,4.73333,27.2667,16.8667,1.27802,1,1,125196.0,338921.0,1703,0.38979036,6.7216969,243.01558,240.0273,48.2785,436.295,47.55,65.0141,45.4626,74.801
1980-12-16 04:05:09,1,-10.125,10.55,24.475,1.74248,1,1,210197.0,356545.0,1703,0.3898403,6.7225542,242.9791,240.0416,55.7198,399.839,4.08022,86.5948,58.9076,76.7212
1980-12-16 04:10:33,1,-20.45,21.975,8.15,2.31017,1,1,162583.0,359800.0,1703,0.38988197,6.7232676,242.94022,240.0535,52.6052,356.864,17.7958,55.1974,51.8079,77.0705
1980-12-16 04:15:57,-1,nan,nan,nan,nan,1,3,nan,nan,1703,0.38992363,6.7239799,242.90524,240.0654,nan,412.782,66.5662,3.56944,nan,nan
1980-12-16 04:21:21,1,-9.325,33.925,3.85,0.491172,1,1,120692.0,319294.0,1703,0.38997364,6.7248354,242.86874,240.07968,50.9163,388.746,63.7618,26.6774,44.6373,72.6028
1980-12-16 04:26:45,-1,nan,nan,nan,nan,1,4,nan,nan,1703,0.3900153,6.7255487,242.82986,240.09158,nan,nan,nan,nan,nan,nan
1980-12-16 04:32:09,1,-7.225,27.45,15.45,3.02603,1,1,139679.0,314089.0,1703,0.39006525,6.7264042,242.79729,240.10588,46.421,404.086,44.7937,67.881,48.0202,72.0086
1980-12-16 04:34:53,-1,nan,nan,nan,nan,1,4,nan,nan,1703,0.38830623,6.7710524,242.04736,239.3833,nan,nan,nan,nan,nan,nan
1980-12-16 04:40:17,1,5.7,31.2,4.83333,5.47378,1,1,296942.0,159158.0,1703,0.38835108,6.7718072,242.01349,239.3963,39.8957,328.823,-19.1035,-28.1654,70.0154,51.2592
1980-12-16 04:45:58,1,8.38261,30.5072,10.2507,5.11715,1,1,108634.0,300654.0,1703,0.39017355,6.7282572,242.69933,240.13683,46.6421,442.914,56.4544,47.2355,42.3488,70.4517
1980-12-16 04:46:23,1,15.0328,24.4689,15.6779,5.56975,1,1,109481.0,287586.0,1703,0.3901819,6.7284002,242.70171,240.13921,42.8054,438.802,54.5341,53.4637,42.5136,68.9036
1980-12-16 04:46:33,1,17.2408,22.41,16.5538,4.36926,1,1,108940.0,284018.0,1703,0.3901819,6.7284002,242.6978,240.13921,42.2233,439.422,54.4552,53.2084,42.4084,68.4748
1980-12-16 04:46:53,1,19.4123,20.041,17.2369,2.65313,1,1,125663.0,317083.0,1703,0.3901819,6.7284002,242.69389,240.13921,48.8026,441.88,49.7541,59.6062,45.5472,72.351
1980-12-16 04:47:33,1,18.762,20.2672,17.4686,2.92315,1,1,117870.0,302479.0,1703,0.39019024,6.7285423,242.69237,240.14159,43.8629,464.889,24.5959,74.9558,44.1122,70.6652
1980-12-16 04:48:13,1,18.3769,22.7654,16.3138,2.57858,1,1,111094.0,288159.0,1703,0.39019853,6.7286854,242.68694,240.14397,43.6091,463.945,28.1245,68.9972,42.8255,68.9722
1980-12-16 04:48:54,1,13.2464,20.7536,21.4275,4.48771,1,1,108350.0,305888.0,1703,0.39019853,6.7286854,242.68303,240.14397,44.2453,454.656,37.3912,61.9233,42.2935,71.0623
1980-12-16 04:49:35,1,19.9333,17.5783,18.8775,3.44913,1,1,114531.0,316406.0,1703,0.39020687,6.7288275,242.6776,240.14635,45.7116,450.504,30.6168,75.5284,43.483,72.2737
1980-12-16 04:50:15,1,25.4717,7.88551,16.9667,5.93209,1,1,109272.0,272170.0,1703,0.39021522,6.7289705,242.67216,240.14873,37.965,467.877,19.6365,71.9211,42.4729,67.0313
1980-12-16 04:50:25,-1,nan,nan,nan,nan,1,4,nan,nan,1703,0.39021522,6.7289705,242.67216,240.14873,nan,nan,nan,nan,nan,nan
1980-12-16 04:51:06,1,9.92462,23.5569,19.3092,5.47039,1,1,131127.0,304938.0,1703,0.39022356,6.7291126,242.66673,240.15111,44.5009,443.662,32.5145,77.1697,46.5269,70.9518
1980-12-16 04:51:46,1,5.61753,26.0682,17.8532,6.55365,1,1,121808.0,376884.0,1703,0.39022356,6.7291126,242.66283,240.15111,57.8247,401.239,55.6376,65.1688,44.8432,78.879
1980-12-16 04:52:27,1,5.80244,22.1203,22.1285,6.18109,1,1,110848.0,360209.0,1703,0.39023185,6.7292557,242.65739,240.15349,49.5412,413.674,29.3959,94.1109,42.7782,77.1143
1980-12-16 04:53:07,1,1.11519,30.2032,9.93608,9.31494,1,1,105464.0,246214.0,1703,0.39024019,6.7293978,242.65587,240.15587,35.4734,408.717,63.7971,49.2126,41.7264,63.755
1980-12-16 04:53:48,1,-0.986555,30.2143,11.8504,5.26142,1,1,113863.0,328502.0,1703,0.39024019,6.7293978,242.64806,240.15587,50.3983,385.21,62.9054,53.3175,43.356,73.6422
1980-12-16 04:54:28,1,2.98231,27.6615,15.6838,5.80874,1,1,102975.0,318720.0,1703,0.39024854,6.7295408,242.64653,240.15825,43.2531,413.835,64.464,55.1065,41.2311,72.5375
1980-12-16 04:55:09,1,2.72338,27.1825,16.9838,5.08254,1,1,121429.0,267650.0,1703,0.39025688,6.7296829,242.6411,240.16063,37.5385,401.463,57.6893,67.6453,44.7733,66.4724
1980-12-16 04:55:49,1,-0.67381,28.1532,15.5794,4.14702,1,1,103384.0,311736.0,1703,0.39025688,6.7296829,242.63329,240.16063,42.4161,404.468,64.8388,53.5975,41.3128,71.7384
1980-12-16 04:56:30,1,8.78099,19.8162,23.3373,6.36743,1,1,121927.0,343702.0,1703,0.39026523,6.729826,242.63176,240.16301,45.6308,427.184,38.6315,75.4132,44.8651,75.3266
1980-12-16 04:57:10,1,0.469048,25.8571,19.7325,6.0823,1,1,110401.0,231192.0,1703,0.39027351,6.7299681,242.62633,240.16539,33.3181,401.381,57.85,60.2313,42.6919,61.7795
1980-12-16 04:57:51,1,-2.53089,28.9878,15.7504,2.19638,1,1,96333.1,273027.0,1703,0.39027351,6.7299681,242.62244,240.16541,35.749,403.942,52.8543,63.7066,39.8791,67.1368
1980-12-16 04:58:31,1,-3.47329,28.4938,16.8897,2.98488,1,1,100439.0,276212.0,1703,0.39028186,6.7301111,242.617,240.16779,40.0638,400.703,53.1936,62.7603,40.7201,67.5273
1980-12-16 04:59:12,1,-2.47077,31.3654,12.0831,2.38554,1,1,117485.0,295312.0,1703,0.3902902,6.7302532,242.61546,240.17015,42.4909,401.851,60.5951,52.8726,44.0402,69.823
1980-12-16 05:00:33,-1,nan,nan,nan,nan,1,4,nan,nan,1703,0.39029855,6.7303963,242.60223,240.17255,nan,nan,nan,nan,nan,nan
1980-12-16 05:01:13,1,-1.81849,31.3756,11.1681,3.22034,1,1,128297.0,290303.0,1703,0.39030683,6.7305365,242.60069,240.17491,43.428,395.851,68.3787,48.2625,46.022,69.2283
1980-12-16 05:01:54,-1,nan,nan,nan,nan,1,4,nan,nan,1703,0.39030689,6.7305374,242.59288,240.17491,nan,nan,nan,nan,nan,nan
1980-12-16 05:02:34,1,-4.21866,32.1403,10.3246,1.63345,1,1,107088.0,256164.0,1703,0.39031523,6.7306776,242.59135,240.17729,40.9078,395.403,64.4746,48.7326,42.0463,65.0305
1980-12-16 05:03:15,-1,nan,nan,nan,nan,1,4,nan,nan,1703,0.39032352,6.7308187,242.58591,240.17966,nan,nan,nan,nan,nan,nan
1980-12-16 05:03:55,1,-2.66587,32.5048,7.69048,2.08857,1,1,120812.0,264654.0,1703,0.39032358,6.7308187,242.57809,240.17966,43.8224,402.524,65.7328,40.5138,44.6593,66.0993
1980-12-16 05:05:16,1,-7.35462,32.2015,4.56231,2.4847,1,1,116104.0,263720.0,1703,0.39034021,6.731101,242.57112,240.1844,43.6124,385.528,63.7926,35.7606,43.7806,65.9825
1980-12-16 05:05:57,-1,nan,nan,nan,nan,1,4,nan,nan,1703,0.39034021,6.731101,242.56721,240.1844,nan,nan,nan,nan,nan,nan
1980-12-16 05:06:37,1,-3.62609,32.9514,3.13406,2.32983,1,1,127892.0,250527.0,1703,0.39034855,6.7312422,242.56178,240.18678,41.2392,395.324,68.453,30.5463,45.9494,64.311
1980-12-16 05:07:18,-1,nan,nan,nan,nan,1,4,nan,nan,1703,0.3903569,6.7313833,242.56024,240.18915,nan,nan,nan,nan,nan,nan
1980-12-16 05:07:58,1,-5.54058,31.221,-3.95435,2.68526,1,1,176926.0,293076.0,1703,0.3903569,6.7313833,242.55243,240.18915,52.5845,386.886,79.0941,7.2901,54.0448,69.5581
1980-12-16 05:08:39,-1,nan,nan,nan,nan,1,4,nan,nan,1703,0.39036524,6.7315245,242.547,240.19153,nan,nan,nan,nan,nan,nan
1980-12-16 05:09:19,1,-2.51948,31.8708,4.10325,2.13753,1,1,148065.0,263610.0,1703,0.39037359,6.7316656,242.54546,240.19389,42.9846,399.738,68.9534,33.1619,49.4407,65.9689
1980-12-16 05:10:40,1,-4.64462,31.2292,1.22077,4.33237,1,1,223744.0,263613.0,1703,0.39038193,6.7318068,242.53612,240.19627,49.3474,389.271,75.8843,19.3273,60.7762,65.9692
1980-12-16 05:11:21,1,-12.7284,28.3284,-5.28955,4.46483,1,1,139941.0,257027.0,1703,0.39039028,6.7319469,242.53067,240.19864,40.505,376.369,65.5116,14.9387,48.0652,65.14
1980-12-16 05:16:44,1,-20.0598,20.1475,-17.0467,2.56483,1,1,88979.9,243573.0,1703,0.390432,6.7326527,242.49567,240.21051,33.6867,354.861,31.7487,-25.6988,38.3269,63.4121
1980-12-16 05:17:25,1,-18.5393,22.2493,-14.6793,5.95523,1,1,99771.7,267952.0,1703,0.39044034,6.7327938,242.49023,240.21289,37.7016,361.645,36.7697,-28.1907,40.5846,66.51
1980-12-16 05:18:05,1,-13.322,26.3195,-13.9203,4.28159,1,1,102960.0,278652.0,1703,0.39044869,6.732935,242.48479,240.21526,40.1353,366.445,48.9391,-10.2434,41.2279,67.8249
1980-12-16 05:18:46,1,-17.3008,21.2541,-12.6582,11.4074,1,1,142474.0,265364.0,1703,0.39044869,6.732935,242.48088,240.21526,43.6767,384.735,57.5539,-15.4214,48.4983,66.188
1980-12-16 05:19:26,1,-29.5091,6.64364,-8.27091,3.42702,1,1,90569.2,271848.0,1703,0.39045703,6.7330761,242.47545,240.21764,36.8828,322.378,-0.270222,-5.12829,38.6677,66.9917
1980-12-16 05:20:07,1,-21.2636,15.9127,-12.7178,12.44,1,1,158184.0,274122.0,1703,0.39046538,6.7332172,242.47391,240.22,41.998,323.271,-18.8927,-2.50258,51.1022,67.2713
1980-12-16 05:20:47,1,-16.7728,21.1518,-19.264,7.28521,1,1,83744.6,229002.0,1703,0.39046538,6.7332172,242.46609,240.22,34.3579,367.503,32.8219,-39.4472,37.1823,61.4862
1980-12-16 05:21:28,1,-14.2182,28.3394,-2.31971,7.26732,1,1,162938.0,274991.0,1703,0.39047372,6.7333574,242.46066,240.22238,41.9726,377.51,75.4223,32.2862,51.8643,67.3779
1980-12-16 05:22:08,1,-20.15,26.2889,-6.80873,2.43072,1,1,100897.0,312467.0,1703,0.39048207,6.7334986,242.45912,240.22475,42.9525,358.222,51.6584,9.34754,40.8128,71.8225
1980-12-16 05:22:49,1,-20.3748,27.8443,0.118261,2.76832,1,1,88749.8,298664.0,1703,0.39048207,6.7334986,242.45131,240.22475,37.2726,356.599,55.6473,31.7705,38.2773,70.2182
1980-12-16 05:23:29,1,-24.3618,25.2091,-1.45273,2.17156,1,1,95452.8,299377.0,1703,0.39049041,6.7336397,242.44978,240.22713,41.8648,350.863,48.7565,24.2628,39.6965,70.3019
1980-12-16 05:24:10,1,-24.75,24.8654,0.458462,2.25524,1,1,80166.2,289818.0,1703,0.39049876,6.7337809,242.44434,240.22949,38.9446,351.379,43.946,22.5765,36.3792,69.1704
1980-12-16 05:24:50,1,-22.7269,27.6054,3.40923,2.00359,1,1,81222.9,256974.0,1703,0.39049876,6.7337809,242.44043,240.22949,35.9921,348.777,43.4987,29.1922,36.6182,65.1332
1980-12-16 05:26:11,1,-21.3664,26.9946,7.97181,2.07366,1,1,82266.1,263526.0,1703,0.39051545,6.7340631,242.42955,240.23424,36.4787,350.513,43.4232,34.248,36.8526,65.9584
1980-12-16 05:26:52,1,-18.8322,26.6585,9.97288,1.65641,1,1,103776.0,279228.0,1703,0.39051545,6.7340631,242.42566,240.23425,42.2618,353.902,45.3799,43.9882,41.391,67.895
1980-12-16 05:27:32,1,-9.77458,26.9237,16.3102,2.37416,1,1,116522.0,304091.0,1703,0.39052379,6.7342043,242.42021,240.23662,42.4499,377.881,48.2024,60.4479,43.8593,70.8532
1980-12-16 05:28:13,1,-9.1232,27.46,15.6,2.51692,1,1,107564.0,283546.0,1703,0.39053214,6.7343454,242.41867,240.23898,41.5052,381.803,49.3046,60.9282,42.1397,68.4179
1980-12-16 05:28:53,1,-15.5033,24.6156,15.0934,2.0895,1,1,110417.0,299484.0,1703,0.39053214,6.7343454,242.41087,240.239,43.3371,353.526,36.6803,58.2923,42.6949,70.3145
1980-12-16 05:29:34,1,-14.2228,23.8336,16.8376,2.39455,1,1,117031.0,320201.0,1703,0.39054048,6.7344866,242.40543,240.24136,44.5204,361.016,40.1079,56.1635,43.9551,72.7058
1980-12-16 05:30:14,1,-15.7582,23.7127,15.9745,2.48281,1,1,102801.0,293756.0,1703,0.39054883,6.7346277,242.4039,240.24374,41.6331,355.829,36.7039,56.8375,41.1961,69.6388
1980-12-16 05:30:55,1,-23.7009,17.7421,16.0158,3.96834,1,1,90353.5,261674.0,1703,0.39054883,6.7346277,242.39609,240.24374,35.3545,349.854,29.5288,60.9913,38.6216,65.7262
1980-12-16 05:31:35,1,-24.3594,16.5681,16.6884,2.23612,1,1,83295.4,279657.0,1703,0.39055717,6.7347679,242.39455,240.24611,37.0836,340.843,17.0642,58.615,37.0825,67.9471
1980-12-16 05:32:16,1,-25.4974,16.8678,14.6696,2.31047,1,1,93825.1,247301.0,1703,0.39056545,6.7349091,242.38911,240.24849,34.6769,342.46,23.8094,54.7831,39.3566,63.8956
1980-12-16 05:32:56,1,-25.3632,13.2588,17.4667,1.8993,1,1,102201.0,257815.0,1703,0.39056551,6.7349091,242.38521,240.24849,37.524,342.333,14.6448,61.0903,41.0758,65.2397
1980-12-16 05:33:37,1,-8.83282,32.3947,-3.78168,2.91316,1,1,94262.4,314163.0,1703,0.3905738,6.7350502,242.37976,240.25085,41.169,377.806,69.5659,17.5907,39.4482,72.017
1980-12-16 05:34:17,1,-20.9288,8.60508,19.3746,9.17228,1,1,90647.4,400839.0,1703,0.39058214,6.7351913,242.37433,240.25323,42.8035,339.803,5.77164,78.3569,38.6844,81.3472
1980-12-16 05:34:58,1,-20.3824,11.1849,19.321,9.20281,1,1,141333.0,302223.0,1703,0.3905822,6.7351913,242.37042,240.25323,47.6783,343.409,-15.7982,96.8295,48.3036,70.6353
1980-12-16 05:35:38,1,-21.7213,18.274,15.074,2.05714,1,1,98561.6,312785.0,1703,0.39059049,6.7353325,242.36497,240.2556,40.0773,340.042,26.1171,72.8065,40.3378,71.8589
1980-12-16 05:36:19,1,-19.337,22.3205,14.0472,2.25968,1,1,89209.3,310957.0,1703,0.39059883,6.7354736,242.36345,240.25798,39.0701,346.699,35.4094,67.6285,38.3763,71.6486
1980-12-16 05:36:59,1,-17.186,27.0347,8.48533,1.92463,1,1,85076.1,283896.0,1703,0.39059883,6.7354736,242.35564,240.25798,36.0981,356.409,55.665,47.7636,37.4767,68.4602
1980-12-16 05:37:40,1,-13.6412,29.1053,5.90076,2.46455,1,1,99275.0,306168.0,1703,0.39060718,6.7356148,242.3541,240.26035,42.151,367.566,61.2631,42.7961,40.4835,71.0948
1980-12-16 05:38:20,1,-14.9474,28.8649,4.71579,1.83412,1,1,92100.6,265305.0,1703,0.39061552,6.7357559,242.34866,240.26273,37.5533,359.58,59.1839,33.7047,38.9932,66.1806
1980-12-16 05:39:01,1,-15.3526,28.9421,2.47544,2.50798,1,1,87640.7,263976.0,1703,0.39062387,6.7358971,242.34322,240.26509,36.3239,355.236,54.8901,31.2914,38.0374,66.0146
1980-12-16 05:39:41,1,-14.2885,29.6943,-0.370492,2.14492,1,1,92214.8,311734.0,1703,0.39062387,6.7358971,242.33931,240.26509,43.8801,365.375,63.7664,18.8544,39.0174,71.7381
1980-12-16 05:40:22,1,-11.3507,31.35,-0.97971,3.45055,1,1,100609.0,298313.0,1703,0.39063221,6.7360382,242.33388,240.26747,39.6661,368.928,68.5564,17.6542,40.7547,70.1768
1980-12-16 05:41:02,1,-7.07388,31.9978,-5.93507,4.77907,1,1,114919.0,315399.0,1703,0.39064056,6.7361784,242.33234,240.26984,43.6035,376.263,69.7507,16.6666,43.5566,72.1585
1980-12-16 05:41:43,1,-6.72598,32.4496,-5.88346,3.99765,1,1,158988.0,262448.0,1703,0.39064056,6.7361794,242.32452,240.26984,44.0411,384.148,79.3198,9.15156,51.2319,65.8233
1980-12-16 05:42:23,1,-8.27462,31.4069,-2.29846,8.07166,1,1,97515.6,275442.0,1703,0.3906489,6.7363195,242.31909,240.27222,36.8137,373.389,63.3735,-1.21821,40.1231,67.433
1980-12-16 05:43:04,1,-10.4721,28.6516,9.40492,4.28649,1,1,95480.1,329569.0,1703,0.39065725,6.7364607,242.31755,240.27458,41.5751,372.73,60.1416,49.3472,39.7022,73.7617
1980-12-16 05:43:44,1,-13.5617,28.1364,7.66623,3.5208,1,1,92373.5,291639.0,1703,0.39065725,6.7364607,242.30975,240.2746,36.3997,362.929,57.7866,49.7953,39.051,69.3874
1980-12-16 05:44:25,1,-14.8216,25.9414,9.52973,6.53039,1,1,86335.7,279470.0,1703,0.39066559,6.7366018,242.30821,240.27696,35.9803,351.264,55.0947,50.2283,37.7531,67.9244
1980-12-16 05:45:05,1,-13.8158,28.5447,4.4,2.87651,1,1,110005.0,298268.0,1703,0.39067394,6.736743,242.30278,240.27934,43.8998,367.562,66.7691,37.1781,42.6152,70.1716
1980-12-16 05:45:46,-1,nan,nan,nan,nan,1,-3,nan,nan,1703,0.39067394,6.736743,242.29887,240.27934,nan,361.492,74.0966,26.0608,nan,nan
1980-12-16 05:46:26,-1,nan,nan,nan,nan,1,4,nan,nan,1703,0.39068228,6.7368841,242.29343,240.28171,nan,nan,nan,nan,nan,nan
1980-12-16 05:47:07,-1,nan,nan,nan,nan,1,-3,nan,nan,1703,0.39069062,6.7370253,242.28799,240.28409,nan,396.574,72.6348,61.7178,nan,nan
1980-12-16 05:47:47,1,-5.23902,29.8203,8.78699,3.39961,1,1,114659.0,308393.0,1703,0.39069062,6.7370253,242.28409,240.28409,41.5237,381.619,70.4786,51.33,43.5072,71.3527
1980-12-16 05:48:28,1,-2.91969,27.6488,13.8409,2.66816,1,1,107079.0,326984.0,1703,0.39069897,6.7371664,242.27864,240.28645,40.0205,387.405,64.4076,67.6552,42.0446,73.4719
1980-12-16 05:49:08,1,1.0163,19.5859,22.5874,5.17843,1,1,116688.0,244571.0,1703,0.39070731,6.7373075,242.27711,240.28883,33.3319,412.608,49.5121,88.2324,43.8905,63.5419
1980-12-16 05:49:49,1,-1.96471,22.9429,19.5437,4.39979,1,1,118622.0,313538.0,1703,0.39070731,6.7373075,242.2693,240.28883,38.1353,405.219,62.0317,69.0216,44.2527,71.9454
1980-12-16 05:50:29,1,-3.55462,18.8235,22.684,4.48975,1,1,197579.0,295403.0,1703,0.39071566,6.7374487,242.26776,240.2912,47.1057,383.687,29.5551,113.987,57.1122,69.8338
1980-12-16 05:51:10,1,-0.720423,27.2514,14.3592,5.64156,1,1,113834.0,327061.0,1703,0.390724,6.7375889,242.26233,240.29358,41.393,394.65,58.8035,71.7839,43.3504,73.4805
1980-12-16 05:51:50,1,-0.248701,29.7792,11.2695,2.44087,1,1,123150.0,334210.0,1703,0.390724,6.7375898,242.25452,240.29358,42.6325,400.817,66.2623,61.137,45.0895,74.2793
1980-12-16 05:52:31,1,2.94224,29.0776,10.8944,5.79809,1,1,117620.0,316922.0,1703,0.39073235,6.73773,242.25298,240.29594,39.9171,403.369,76.7262,41.4742,44.0655,72.3327
1980-12-16 05:53:11,1,7.20435,28.3283,10.7884,4.62007,1,1,110409.0,406644.0,1703,0.39074069,6.7378712,242.24754,240.29832,48.9329,418.079,69.8222,47.2634,42.6934,81.9342
1980-12-16 05:53:52,1,6.46148,26.5326,14.443,4.75178,1,1,110646.0,390118.0,1703,0.39074069,6.7378712,242.24364,240.29832,49.3133,423.033,63.0402,58.329,42.7391,80.2521
1980-12-16 05:54:32,1,2.38361,26.1107,16.5713,2.58855,1,1,111707.0,305417.0,1703,0.39074904,6.7380123,242.23819,240.30069,38.3002,412.517,59.6271,72.7757,42.9436,71.0076
1980-12-16 05:55:13,1,3.91721,25.259,17.577,3.22064,1,1,114417.0,332461.0,1703,0.39075738,6.7381535,242.23276,240.30307,40.9095,409.549,51.3824,81.5239,43.4613,74.0847
1980-12-16 05:55:53,1,4.37937,27.7548,15.1302,3.84677,1,1,106249.0,304885.0,1703,0.39075738,6.7381535,242.22885,240.30307,36.3331,409.184,51.9402,80.0275,41.8814,70.9457
1980-12-16 05:56:34,1,5.6916,30.4718,9.58244,3.33146,1,1,103462.0,321998.0,1703,0.39076573,6.7382946,242.2234,240.30544,38.048,415.996,63.561,52.2529,41.3283,72.9096
1980-12-16 05:57:14,1,4.58051,30.889,9.14492,2.13742,1,1,114900.0,290046.0,1703,0.39077407,6.7384357,242.22188,240.30782,37.3186,412.245,68.0635,49.48,43.5531,69.1976
1980-12-16 05:57:55,1,6.19134,29.8047,9.42913,5.14134,1,1,114714.0,327724.0,1703,0.39077407,6.7384357,242.21407,240.30782,42.2234,416.516,70.9565,41.5554,43.5177,73.555
1980-12-16 05:58:35,1,8.02047,28.3244,12.6732,2.90654,1,1,98025.8,314856.0,1703,0.39078242,6.7385769,242.21254,240.3102,36.8507,426.909,56.3986,59.4232,40.228,72.0965
1980-12-16 05:59:16,1,5.29449,32.378,7.44094,2.53764,1,1,93843.6,258995.0,1703,0.39079076,6.738718,242.20709,240.31256,34.3367,417.965,62.8596,45.1666,39.3605,65.3888
1980-12-16 05:59:56,1,3.58031,31.9575,8.55591,5.9207,1,1,82516.8,311159.0,1703,0.39079076,6.738718,242.19928,240.31256,38.1523,405.991,56.5076,58.7998,36.9087,71.672
1980-12-16 06:00:37,1,2.25563,33.357,7.37682,2.60139,1,1,100387.0,245683.0,1703,0.39079911,6.7388592,242.19775,240.31494,34.9773,409.537,66.4408,39.9695,40.7096,63.6862
1980-12-16 06:01:17,1,2.2916,33.5779,7.84656,1.95537,1,1,123813.0,260083.0,1703,0.39080745,6.7389984,242.19231,240.31731,35.5877,403.302,68.922,45.0072,45.2107,65.5261
1980-12-16 06:01:58,1,4.66693,34.1433,3.28976,2.74199,1,1,111177.0,258748.0,1703,0.39080745,6.7389984,242.1884,240.31731,36.4296,409.892,67.6134,34.2372,42.8416,65.3577
1980-12-16 06:02:38,-1,nan,nan,nan,nan,1,4,nan,nan,1703,0.39081579,6.7391376,242.18295,240.31967,nan,nan,nan,nan,nan,nan
1980-12-16 06:03:19,1,-2.23659,31.2024,-11.5358,3.58139,1,1,115045.0,324631.0,1703,0.39082414,6.7392769,242.18141,240.32204,43.1209,396.315,73.1652,-10.1851,43.5804,73.2071
1980-12-16 06:03:59,-1,nan,nan,nan,nan,1,4,nan,nan,1703,0.39082414,6.7392769,242.1736,240.32204,nan,nan,nan,nan,nan,nan
1980-12-16 06:04:40,1,-0.156291,31.396,-6.46887,7.30039,1,1,128491.0,298501.0,1703,0.39083248,6.7394171,242.16815,240.3244,40.8671,383.593,69.0914,-3.62541,46.0568,70.199
1980-12-16 06:05:20,-1,nan,nan,nan,nan,1,4,nan,nan,1703,0.39084083,6.7395563,242.16661,240.32677,nan,nan,nan,nan,nan,nan
1980-12-16 06:06:01,1,6.42358,31.2073,-0.122764,4.45662,1,1,142152.0,312404.0,1703,0.39084923,6.7396955,242.16116,240.32913,44.0938,414.936,73.9389,30.997,48.4434,71.8151
1980-12-16 06:06:41,1,0.176296,30.4444,-11.2867,3.21482,1,1,195915.0,262579.0,1703,0.39084923,6.7396955,242.15726,240.32913,48.1281,400.715,78.9351,-16.719,56.8711,65.8397
1980-12-16 06:07:22,1,4.20407,30.6667,-9.10407,3.13982,1,1,171569.0,290790.0,1703,0.39085758,6.7398357,242.15181,240.3315,45.0058,411.822,78.8971,0.0084535,53.2203,69.2864
1980-12-16 06:08:02,-1,nan,nan,nan,nan,1,4,nan,nan,1703,0.39086592,6.739975,242.14636,240.33386,nan,nan,nan,nan,nan,nan
1980-12-16 06:08:43,1,-1.3702,28.5503,-13.7536,6.69865,1,1,142777.0,331657.0,1703,0.39086592,6.739975,242.14246,240.33386,47.5206,388.002,71.5614,-7.26925,48.5497,73.995
1980-12-16 06:09:23,-1,nan,nan,nan,nan,1,4,nan,nan,1703,0.39087427,6.7401142,242.13701,240.33623,nan,nan,nan,nan,nan,nan